Regional Weather Roundup
Issued by NWS Kansas City/Pleasant Hill, MO

Home | Current Version | Previous Version | Graphics & Text | Print | Product List | Glossary Off
Versions: 1 2 3 4 5 6 7 8 9 10 11 12 13 14 15 16 17 18 19 20 21 22 23 24 25 26 27 28 29 30 31 32 33 34 35 36 37 38 39 40 41 42 43 44 45 46 47 48 49 50

876
ASUS43 KEAX 051310
RWREAX

WEATHER ROUNDUP FOR EASTERN KANSAS AND NORTHWEST MISSOURI
NATIONAL WEATHER SERVICE KANSAS CITY/PLEASANT HILL MO
800 AM CDT THU MAY 05 2016

KSZ040-057-103>105-MOZ028-029-037-043-051400-
...KANSAS CITY METROPOLITAN AREA...

CITY           SKY/WX    TMP DP  RH WIND       PRES   REMARKS
K.C. INTL      MOSUNNY   53  42  66 N6        30.06R
K.C. DOWNTOWN  SUNNY     54  44  69 CALM      30.06R
LEES SUMMIT    SUNNY     53  43  68 NW3       30.06R
OLATHE - IXD   SUNNY     52  44  74 NW6       30.07R
OLATHE - OJC   SUNNY     54  40  59 N7        30.06R
LAWRENCE       SUNNY     50  45  83 NW8       30.07R

$$

MOZ001>008-011>017-020>025-030>033-038>040-044>046-053-054-051400-
...NORTHERN AND CENTRAL MISSOURI...

CITY           SKY/WX    TMP DP  RH WIND       PRES   REMARKS
ST. JOSEPH     SUNNY     50  45  83 N3        30.07R
MOSBY          SUNNY     48  45  87 CALM      30.06R
WARRENSBURG    SUNNY     50  41  71 NW5       30.05R
WHITEMAN AFB   SUNNY     52  43  71 NW6       30.04R
CLINTON        SUNNY     52  43  71 CALM      30.05R
SEDALIA        SUNNY     52  41  66 NW7       30.05R
WARSAW         NOT AVBL
CHILLICOTHE      N/A     52  42  69 VRB3      30.07R
KIRKSVILLE     SUNNY     50  36  58 N6        30.05R

$$

MOZ041-047>049-056>058-063>065-088>090-097-051400-
...EASTERN AND SOUTHERN MISSOURI...

CITY           SKY/WX    TMP DP  RH WIND       PRES   REMARKS
ST. LOUIS INTL SUNNY     51  36  56 N10       29.99R
SPIRIT OF STL  SUNNY     51  39  63 NE7       29.99R
COLUMBIA       SUNNY     51  39  63 N7        30.02R
JEFFERSON CITY SUNNY     49  42  77 W6        30.02R
ROLLA          SUNNY     49  40  71 N9        29.99R
OSAGE BEACH    SUNNY     52  36  54 W3        30.03R
SPRINGFIELD    SUNNY     54  40  59 W6        30.03R
BRANSON        SUNNY     52  41  66 CALM      30.04R
JOPLIN         SUNNY     51  45  79 CALM      30.07R
WEST PLAINS    SUNNY     54  38  54 NW9       30.01R

$$

IAZ060-094-KSZ022-034>040-054-083-096-NEZ052-066-093-051400-
...KANSAS...SOUTHEAST NEBRASKA AND IOWA...

CITY           SKY/WX    TMP DP  RH WIND       PRES   REMARKS
TOPEKA         SUNNY     51  44  77 W5        30.08R
MANHATTAN      MOSUNNY   48  43  82 SW3       30.10R
EMPORIA        SUNNY     51  44  77 NW3       30.08R
CHANUTE        SUNNY     52  43  71 NW5       30.08R
WICHITA        SUNNY     53  42  66 NW6       30.11R
OMAHA          MOSUNNY   50  44  80 CALM      30.08R
LINCOLN        SUNNY     49  41  74 CALM      30.10R
FALLS CITY     SUNNY     50  43  77 NW6       30.07R
LAMONI         SUNNY     50  38  63 NE6       30.07R
DES MOINES     MOSUNNY   52  33  48 E5        30.08R

$$





USA.gov is the U.S. government's official web portal to all federal, state and local government web resources and services.